Zurück zum Katalog

STARLINK-38139

AktivKommunikationSSO
NORAD 100236·PAYLOAD·🇺🇸 United States

Gestartet Aug 4, 2026 von Vandenberg Space Force Base

Loading…

Nächste Überflüge (nächste 24 Stunden)

TLE

AktuellSource: Space-Track

Epoche: Sep 14, 2026, 15:02 UTC

1 A0236U 26177Z   26257.62652210  .00021403  00000-0  39378-3 0  9993
2 A0236  97.2832 308.4059 0001715  83.4092 276.7355 15.49212841  6450

Verfolge STARLINK-38139 in Echtzeit mit AllMySat

Download on the App Store